Sigfox identifier Datetime Temperature Humidity SNR
003A59AD 2019-04-23 15:04:36 15.9 33 22.5
003A59AD 2019-04-23 14:33:58 15.8 32 22.5
003A59AD 2019-04-23 14:03:21 15.8 32 22.5
003A59AD 2019-04-23 13:32:40 15.8 32 22.3
003A59AD 2019-04-23 13:02:01 15.8 32 22
003A59AD 2019-04-23 12:31:22 15.8 32 21.9
003A59AD 2019-04-23 12:00:42 15.7 32 21.6
003A59AD 2019-04-23 11:30:03 15.7 32 21.3
003A59AD 2019-04-23 10:59:22 15.7 32 21.1
003A59AD 2019-04-23 10:28:43 15.7 32 20.8
003A59AD 2019-04-23 09:58:03 15.7 32 20.1
003A59AD 2019-04-23 09:27:23 15.7 32 19.8
003A59AD 2019-04-23 08:56:45 15.7 32 18.9
003A59AD 2019-04-23 08:26:06 15.8 32 17.7
003A59AD 2019-04-23 07:55:27 15.7 32 16.4
003A59AD 2019-04-23 07:24:49 15.7 32 16.5
003A59AD 2019-04-23 06:54:10 15.6 32 16.5
003A59AD 2019-04-23 06:23:35 15.6 32 16.7
003A59AD 2019-04-23 05:52:52 15.7 32 16.6
003A59AD 2019-04-23 05:22:14 15.8 32 16.6
003A59AD 2019-04-23 04:51:35 15.7 32 16.6
003A59AD 2019-04-23 04:20:57 15.8 32 16.5
003A59AD 2019-04-23 03:50:18 15.8 32 16.5
003A59AD 2019-04-23 03:19:39 15.8 32 16.5
003A59AD 2019-04-23 02:49:01 15.8 32 19.2
003A59AD 2019-04-23 02:18:22 15.8 32 19.1
003A59AD 2019-04-23 01:47:44 15.8 32 19.1
003A59AD 2019-04-23 01:17:05 15.8 32 19.2
003A59AD 2019-04-23 00:46:28 15.8 32 19.2
003A59AD 2019-04-23 00:15:47 15.8 32 19.1
003A59AD 2019-04-22 23:45:09 15.8 32 19.2
003A59AD 2019-04-22 23:14:29 15.8 32 19.1
003A59AD 2019-04-22 22:43:51 15.8 32 19.1
003A59AD 2019-04-22 22:13:13 15.8 32 19.1
003A59AD 2019-04-22 21:42:34 15.8 32 19.1
003A59AD 2019-04-22 21:11:55 15.8 32 19.1
003A59AD 2019-04-22 20:41:16 15.9 32 19
003A59AD 2019-04-22 20:10:37 15.8 32 19
003A59AD 2019-04-22 19:39:59 15.8 32 19
003A59AD 2019-04-22 19:09:21 15.8 32 18.9
003A59AD 2019-04-22 18:38:43 15.8 32 18.9
003A59AD 2019-04-22 18:08:04 15.8 32 20.6
003A59AD 2019-04-22 17:37:26 15.8 32 20.6
003A59AD 2019-04-22 17:06:47 15.8 32 20.6
003A59AD 2019-04-22 16:36:08 15.8 32 20.6
003A59AD 2019-04-22 16:05:30 15.8 32 20.7
003A59AD 2019-04-22 15:34:51 15.8 32 20.6
003A59AD 2019-04-22 15:04:14 15.8 32 20.6
003A59AD 2019-04-22 14:33:37 15.7 32 20.6
003A59AD 2019-04-22 14:02:58 15.7 32 18.8
003A59AD 2019-04-22 13:32:19 15.7 31 18.8
003A59AD 2019-04-22 13:01:40 15.7 31 18.7
003A59AD 2019-04-22 12:31:01 15.6 31 18.6
003A59AD 2019-04-22 12:00:23 15.6 31 20.5
003A59AD 2019-04-22 11:29:45 15.7 31 20.5
003A59AD 2019-04-22 10:59:07 15.6 31 20.5
003A59AD 2019-04-22 10:28:29 15.6 31 20.5
003A59AD 2019-04-22 09:57:50 15.6 31 20.5
003A59AD 2019-04-22 09:27:11 15.6 31 20.5
003A59AD 2019-04-22 08:56:33 15.6 31 20.4
003A59AD 2019-04-22 08:25:55 15.6 31 20.4
003A59AD 2019-04-22 07:55:16 15.6 31 20.5
003A59AD 2019-04-22 07:24:38 15.6 31 20.5
003A59AD 2019-04-22 06:54:01 15.6 31 20.5
003A59AD 2019-04-22 06:23:21 15.6 31 20.5
003A59AD 2019-04-22 05:52:44 15.6 31 20.5
003A59AD 2019-04-22 05:22:04 15.6 31 18.8
003A59AD 2019-04-22 04:51:26 15.6 31 18.7
003A59AD 2019-04-22 04:20:47 15.6 31 18.8
003A59AD 2019-04-22 03:50:08 15.6 31 18.7
003A59AD 2019-04-22 03:19:30 15.6 31 18.8
003A59AD 2019-04-22 02:48:52 15.6 31 18.8
003A59AD 2019-04-22 02:18:14 15.6 31 18.8
003A59AD 2019-04-22 01:47:38 15.6 31 18.8
003A59AD 2019-04-22 01:16:58 15.6 31 18.8
003A59AD 2019-04-22 00:46:20 15.6 31 18.8
003A59AD 2019-04-22 00:15:42 15.6 31 18.8
003A59AD 2019-04-21 23:45:04 15.6 31 18.8
003A59AD 2019-04-21 23:14:24 15.6 31 15.6
003A59AD 2019-04-21 22:43:45 15.6 31 15.5
003A59AD 2019-04-21 22:13:07 15.6 31 15.4
003A59AD 2019-04-21 21:42:28 15.6 31 15.4
003A59AD 2019-04-21 21:11:49 15.6 31 15.5
003A59AD 2019-04-21 20:41:11 15.6 31 15.5
003A59AD 2019-04-21 20:10:34 15.6 31 15.3
003A59AD 2019-04-21 19:39:54 15.6 31 15.3
003A59AD 2019-04-21 19:09:16 15.6 31 15.1
003A59AD 2019-04-21 18:38:39 15.6 31 14.9
003A59AD 2019-04-21 18:08:02 15.6 31 14.8
003A59AD 2019-04-21 17:37:25 15.6 31 14.9
003A59AD 2019-04-21 17:06:48 15.6 31 14.6
003A59AD 2019-04-21 16:36:11 15.6 31 14.3
003A59AD 2019-04-21 16:05:34 15.6 31 14.4
003A59AD 2019-04-21 15:34:57 15.6 31 14.1
003A59AD 2019-04-21 15:04:20 15.6 31 14.3
003A59AD 2019-04-21 14:33:43 15.6 31 14.2
003A59AD 2019-04-21 14:03:06 15.6 30 14
003A59AD 2019-04-21 13:32:28 15.6 30 14
003A59AD 2019-04-21 13:01:50 15.6 30 14.2
003A59AD 2019-04-21 12:31:12 15.6 30 14.3
003A59AD 2019-04-21 12:00:35 15.6 30 14.4
003A59AD 2019-04-21 11:29:57 15.6 30 14.6
003A59AD 2019-04-21 10:59:20 15.6 30 14.7
003A59AD 2019-04-21 10:28:42 15.6 30 14.9
003A59AD 2019-04-21 09:58:06 15.7 30 15.1
003A59AD 2019-04-21 09:27:32 15.6 30 15.1
003A59AD 2019-04-21 08:56:50 15.8 30 15.2
003A59AD 2019-04-21 08:26:12 15.6 30 15.1
003A59AD 2019-04-21 07:55:34 15.7 30 15.2
003A59AD 2019-04-21 07:24:56 15.6 30 15.4
003A59AD 2019-04-21 06:54:18 15.6 30 15.3
003A59AD 2019-04-21 06:23:40 15.7 30 15.3
003A59AD 2019-04-21 05:53:03 15.6 30 15.3
003A59AD 2019-04-21 05:22:26 15.6 30 15.2
003A59AD 2019-04-21 04:51:50 15.6 30 15.2
003A59AD 2019-04-21 04:21:10 15.6 30 15.3
003A59AD 2019-04-21 03:50:31 15.7 30 15.5
003A59AD 2019-04-21 03:19:53 15.6 30 15.4
003A59AD 2019-04-21 02:49:16 15.6 30 15.3
003A59AD 2019-04-21 02:18:37 15.6 30 15.2
003A59AD 2019-04-21 01:47:59 15.6 30 15.1
003A59AD 2019-04-21 01:17:21 15.6 30 15.2
003A59AD 2019-04-21 00:46:43 15.6 30 15.2
003A59AD 2019-04-21 00:16:04 15.7 30 15.1
003A59AD 2019-04-20 23:45:26 15.7 30 14.9
003A59AD 2019-04-20 23:14:49 15.6 30 14.7
003A59AD 2019-04-20 22:44:08 15.7 30 14.5
003A59AD 2019-04-20 22:13:29 15.6 30 14.4
003A59AD 2019-04-20 21:42:50 15.7 30 14.3
003A59AD 2019-04-20 21:12:11 15.6 30 14.2
003A59AD 2019-04-20 20:41:31 15.7 30 14.2
003A59AD 2019-04-20 20:10:51 15.7 30 14
003A59AD 2019-04-20 19:40:12 15.7 30 13.9
003A59AD 2019-04-20 19:09:32 15.7 30 14
003A59AD 2019-04-20 18:38:52 15.7 30 14
003A59AD 2019-04-20 18:08:13 15.7 30 14.2
003A59AD 2019-04-20 17:37:32 15.7 30 14.5
003A59AD 2019-04-20 17:06:52 15.7 30 14.8
003A59AD 2019-04-20 16:36:13 15.8 30 14.9
003A59AD 2019-04-20 16:05:33 15.8 30 15.1
003A59AD 2019-04-20 15:34:53 15.8 29 15
003A59AD 2019-04-20 15:04:14 15.8 29 15
003A59AD 2019-04-20 14:33:35 15.8 29 15.3
003A59AD 2019-04-20 14:02:56 15.8 29 15.6
003A59AD 2019-04-20 13:32:16 15.8 29 15.8
003A59AD 2019-04-20 13:01:36 15.8 29 15.8
003A59AD 2019-04-20 12:30:56 15.8 29 15.9
003A59AD 2019-04-20 12:00:18 15.8 29 16
003A59AD 2019-04-20 11:29:40 15.8 29 16.1
003A59AD 2019-04-20 10:59:01 15.8 29 16.3
003A59AD 2019-04-20 10:28:23 15.8 29 16.2
003A59AD 2019-04-20 09:57:45 15.8 29 16.4
003A59AD 2019-04-20 09:27:09 15.9 29 16.6
003A59AD 2019-04-20 08:56:28 15.9 29 16.6
003A59AD 2019-04-20 08:25:50 15.9 29 16.6
003A59AD 2019-04-20 07:55:12 16 29 16.8
003A59AD 2019-04-20 07:24:34 16 29 17
003A59AD 2019-04-20 06:53:55 16 29 17
003A59AD 2019-04-20 06:23:16 16 29 17
003A59AD 2019-04-20 05:52:35 16 29 17
003A59AD 2019-04-20 05:21:55 16 29 16.9
003A59AD 2019-04-20 04:51:16 16 29 16.8
003A59AD 2019-04-20 04:20:36 16 29 16.8
003A59AD 2019-04-20 03:49:56 16 29 16.6
003A59AD 2019-04-20 03:19:16 16 29 16.7
003A59AD 2019-04-20 02:48:39 16 29 16.7
003A59AD 2019-04-20 02:17:58 16.1 29 16.6
003A59AD 2019-04-20 01:47:18 16.1 29 16.5
003A59AD 2019-04-20 01:16:38 16.1 29 16.5
003A59AD 2019-04-20 00:45:59 16.1 29 16.5
003A59AD 2019-04-20 00:15:18 16.2 29 16.7
003A59AD 2019-04-19 23:44:38 16.3 29 16.7
003A59AD 2019-04-19 23:13:58 16.3 29 16.6
003A59AD 2019-04-19 22:43:19 16.3 29 16.5
003A59AD 2019-04-19 22:12:40 16.2 29 16.3
003A59AD 2019-04-19 21:42:00 16.3 29 16.1
003A59AD 2019-04-19 21:11:20 16.3 29 15.9
003A59AD 2019-04-19 20:40:41 16.3 29 15.7
003A59AD 2019-04-19 20:10:01 16.3 29 15.6
003A59AD 2019-04-19 19:39:21 16.2 29 15.5
003A59AD 2019-04-19 19:08:41 16.2 29 15.4
003A59AD 2019-04-19 18:38:00 16.2 29 15.2
003A59AD 2019-04-19 18:07:21 16.2 29 15.1
003A59AD 2019-04-19 17:36:42 16.1 29 15.1
003A59AD 2019-04-19 17:06:04 16 28 15
003A59AD 2019-04-19 16:35:25 16.1 28 15
003A59AD 2019-04-19 16:04:46 16 28 15
003A59AD 2019-04-19 15:34:08 16.1 28 15
003A59AD 2019-04-19 15:03:29 16 28 15.2
003A59AD 2019-04-19 14:32:50 16 28 15.1
003A59AD 2019-04-19 14:02:14 16 28 15.1
003A59AD 2019-04-19 13:31:31 16 28 15.2
003A59AD 2019-04-19 13:00:52 16 28 15.1
003A59AD 2019-04-19 12:30:13 16.1 28 15
003A59AD 2019-04-19 11:59:36 16.1 28 14.7
003A59AD 2019-04-19 11:28:55 16.1 28 14.8
003A59AD 2019-04-19 10:58:16 16.1 28 14.8
003A59AD 2019-04-19 10:27:38 16.2 28 14.9
003A59AD 2019-04-19 09:56:57 16.2 28 15.1
003A59AD 2019-04-19 09:26:20 16.2 28 15.1
003A59AD 2019-04-19 08:55:39 16.3 28 15.3
003A59AD 2019-04-19 08:25:03 16.3 28 15.3
003A59AD 2019-04-19 07:54:22 16.3 28 15.5
003A59AD 2019-04-19 07:23:43 16.3 28 15.5
003A59AD 2019-04-19 06:53:04 16.3 28 15.5
003A59AD 2019-04-19 06:22:27 16.3 28 15.4
003A59AD 2019-04-19 05:51:45 16.3 28 15.5
003A59AD 2019-04-19 05:21:06 16.3 28 15.5
003A59AD 2019-04-19 04:50:28 16.5 28 15.5
003A59AD 2019-04-19 04:19:49 16.5 28 17.5
003A59AD 2019-04-19 03:49:10 16.5 28 18.7
003A59AD 2019-04-19 03:18:31 16.5 28 19.3
003A59AD 2019-04-19 02:47:52 16.5 28 19.8
003A59AD 2019-04-19 02:17:12 16.5 28 19.9
003A59AD 2019-04-19 01:46:33 16.6 28 19.9
003A59AD 2019-04-19 01:15:54 16.6 28 20.9
003A59AD 2019-04-19 00:45:17 16.7 28 21.4
003A59AD 2019-04-19 00:14:36 16.7 28 21.6
003A59AD 2019-04-18 23:44:00 16.7 28 22
003A59AD 2019-04-18 23:13:16 16.7 28 22.3
003A59AD 2019-04-18 22:42:37 16.7 27 22.5
003A59AD 2019-04-18 22:11:58 16.7 27 22.6
003A59AD 2019-04-18 21:41:21 16.7 27 22.7
003A59AD 2019-04-18 21:10:39 16.7 27 22.8
003A59AD 2019-04-18 20:40:00 16.7 27 22.9
003A59AD 2019-04-18 20:09:20 16.7 27 22.9
003A59AD 2019-04-18 19:38:42 16.7 27 22.8
003A59AD 2019-04-18 19:08:01 16.7 27 22.8
003A59AD 2019-04-18 18:37:22 16.6 27 22.8
003A59AD 2019-04-18 18:06:44 16.6 27 22.8
003A59AD 2019-04-18 17:36:06 16.5 27 22.8
003A59AD 2019-04-18 17:05:28 16.5 27 22.8
003A59AD 2019-04-18 16:34:49 16.5 27 22.8
003A59AD 2019-04-18 16:04:11 16.5 27 22.3
003A59AD 2019-04-18 15:33:32 16.5 27 21.8
003A59AD 2019-04-18 15:02:52 16.5 27 21.4
003A59AD 2019-04-18 14:32:15 16.5 27 21.1
003A59AD 2019-04-18 14:01:36 16.5 27 21
003A59AD 2019-04-18 13:30:57 16.5 27 20.9
003A59AD 2019-04-18 13:00:18 16.5 27 19.9
003A59AD 2019-04-18 12:29:40 16.5 27 19.6
003A59AD 2019-04-18 11:59:02 16.5 27 19.2
003A59AD 2019-04-18 11:28:23 16.5 27 18.8
003A59AD 2019-04-18 10:57:44 16.5 26 18
003A59AD 2019-04-18 10:27:04 16.6 26 17.4
003A59AD 2019-04-18 09:56:25 16.6 26 16.8
003A59AD 2019-04-18 09:25:47 16.7 26 16.4
003A59AD 2019-04-18 08:55:07 16.7 26 15.9
003A59AD 2019-04-18 08:24:29 16.7 26 15.6
003A59AD 2019-04-18 07:53:50 16.7 26 15.2
003A59AD 2019-04-18 07:23:11 16.7 26 15.7
003A59AD 2019-04-18 06:52:35 16.7 26 16.4
003A59AD 2019-04-18 06:21:54 16.7 26 16.7
003A59AD 2019-04-18 05:51:16 16.7 26 17
003A59AD 2019-04-18 05:20:39 16.8 26 17.2
003A59AD 2019-04-18 04:49:59 16.9 26 17.6
003A59AD 2019-04-18 04:19:21 16.9 26 18
003A59AD 2019-04-18 03:48:42 16.9 26 18.3
003A59AD 2019-04-18 03:18:04 16.9 26 18.7
003A59AD 2019-04-18 02:47:25 17 26 18.7
003A59AD 2019-04-18 02:16:48 17.1 26 19.1
003A59AD 2019-04-18 01:46:07 17.1 26 19.3
003A59AD 2019-04-18 01:15:29 17.1 26 19.4
003A59AD 2019-04-18 00:44:51 17.1 26 19.8
003A59AD 2019-04-18 00:14:10 17.1 26 19.9
003A59AD 2019-04-17 23:43:33 17.1 26 20
003A59AD 2019-04-17 23:12:52 17.1 26 20.2
003A59AD 2019-04-17 22:42:12 17.2 26 20.6
003A59AD 2019-04-17 22:11:33 17.2 25 20.6
003A59AD 2019-04-17 21:40:54 17.2 25 20.6
003A59AD 2019-04-17 21:10:15 17.3 25 20.8
003A59AD 2019-04-17 20:39:36 17.2 25 20.9
003A59AD 2019-04-17 20:08:56 17.3 25 21.1
003A59AD 2019-04-17 19:38:17 17.3 25 21.3
003A59AD 2019-04-17 19:07:38 17.3 25 21.4
003A59AD 2019-04-17 18:37:00 17.3 25 21.5
003A59AD 2019-04-17 18:06:23 17.3 25 21.5
003A59AD 2019-04-17 17:35:45 17.3 25 21.7
003A59AD 2019-04-17 17:05:07 17.5 25 21.7
003A59AD 2019-04-17 16:34:29 17.5 25 21.9
003A59AD 2019-04-17 16:03:51 17.5 25 22
003A59AD 2019-04-17 15:33:12 17.5 25 22
003A59AD 2019-04-17 15:02:35 17.5 25 22.2
003A59AD 2019-04-17 14:31:56 17.7 25 22.2
003A59AD 2019-04-17 14:01:18 17.8 25 22.3
003A59AD 2019-04-17 13:00:03 17.8 25 22.3
003A59AD 2019-04-17 12:29:25 17.8 24 22.4
003A59AD 2019-04-17 11:58:47 17.9 24 22.5
003A59AD 2019-04-17 11:28:09 18 24 22.5
003A59AD 2019-04-17 10:57:32 18 24 22.4
003A59AD 2019-04-17 10:26:52 18 24 22.3
003A59AD 2019-04-17 09:56:13 18.2 24 22.2
003A59AD 2019-04-17 09:25:34 18.2 24 22
003A59AD 2019-04-17 08:54:56 18.3 24 21.9
003A59AD 2019-04-17 08:24:18 18.4 24 21.8
003A59AD 2019-04-17 07:53:41 18.4 24 21.5
003A59AD 2019-04-17 07:23:02 18.6 24 21.4
003A59AD 2019-04-17 06:52:24 18.6 24 21.1
003A59AD 2019-04-17 06:21:46 18.6 24 20.9
003A59AD 2019-04-17 05:51:07 18.8 24 20.7
003A59AD 2019-04-17 05:20:29 18.8 24 20.7
003A59AD 2019-04-17 04:49:51 18.8 24 20.8
003A59AD 2019-04-17 04:19:12 18.8 24 21.8
003A59AD 2019-04-17 03:48:33 19 24 21.6
003A59AD 2019-04-17 03:17:55 19 24 21.3
003A59AD 2019-04-17 02:47:16 19 23 21.1
003A59AD 2019-04-17 02:16:38 19.1 23 20.9
003A59AD 2019-04-17 01:46:00 19.2 23 20.5
003A59AD 2019-04-17 01:15:21 19.2 23 20.1
003A59AD 2019-04-17 00:44:43 19.3 23 20
003A59AD 2019-04-17 00:14:05 19.5 23 19.7
003A59AD 2019-04-16 23:43:27 19.5 23 19.3
003A59AD 2019-04-16 23:12:48 19.7 23 19.2
003A59AD 2019-04-16 22:42:11 19.7 23 19.1
003A59AD 2019-04-16 22:11:33 19.8 23 19.1
003A59AD 2019-04-16 21:40:55 19.9 23 19.3
003A59AD 2019-04-16 21:10:18 19.9 23 19.3
003A59AD 2019-04-16 20:39:40 20.1 23 19.5
003A59AD 2019-04-16 20:09:03 20.1 23 19.6
003A59AD 2019-04-16 19:38:23 20.1 23 19.5
003A59AD 2019-04-16 19:07:44 20.3 23 19.7
003A59AD 2019-04-16 18:37:07 20.3 23 19.7
003A59AD 2019-04-16 18:06:26 20.5 23 19.9
003A59AD 2019-04-16 17:35:53 20.5 23 19.9
003A59AD 2019-04-16 17:05:13 20.6 23 20
003A59AD 2019-04-16 16:03:56 20.8 23 19.6
003A59AD 2019-04-16 15:33:18 21 23 19.3
003A59AD 2019-04-16 15:02:38 21 23 16.6
003A59AD 2019-04-16 13:30:44 21 23 17
003A59AD 2019-04-16 13:00:06 21 23 17.1
003A59AD 2019-04-16 12:29:29 21 23 17
003A59AD 2019-04-16 11:58:49 21 23 17
003A59AD 2019-04-16 11:28:12 21 23 16.9
003A59AD 2019-04-16 10:57:34 20.9 23 16.8
003A59AD 2019-04-16 10:26:57 20.9 23 17.1
003A59AD 2019-04-16 09:25:41 20.8 23 17.1
003A59AD 2019-04-16 08:55:04 20.9 23 17.2
003A59AD 2019-04-16 08:24:24 20.9 23 16.8
003A59AD 2019-04-16 07:53:45 21 23 16.2
003A59AD 2019-04-16 07:23:07 21 23 16.2
003A59AD 2019-04-16 06:52:28 21 23 16.2
003A59AD 2019-04-16 06:21:49 21 23 16.1
003A59AD 2019-04-16 05:51:10 21 22 15.6
003A59AD 2019-04-16 05:20:33 21 22 15.4
003A59AD 2019-04-16 04:49:54 21 22 15.4
003A59AD 2019-04-16 04:19:17 21 22 15.5
003A59AD 2019-04-16 03:48:39 21 22 15.7
003A59AD 2019-04-16 03:18:00 21 22 15.2
003A59AD 2019-04-16 02:47:21 21 22 15.2
003A59AD 2019-04-16 02:16:44 21 22 15
003A59AD 2019-04-16 01:46:05 21 22 15.4
003A59AD 2019-04-16 01:15:27 21 22 15.4
003A59AD 2019-04-16 00:44:49 21 22 16.1
003A59AD 2019-04-16 00:14:11 21 21 17
003A59AD 2019-04-15 23:43:35 21.2 21 18.3
003A59AD 2019-04-15 23:12:55 21.2 21 19
003A59AD 2019-04-15 22:42:17 21.2 21 19.5
003A59AD 2019-04-15 22:11:38 21.2 21 20.6
003A59AD 2019-04-15 21:41:00 21.2 21 21.3
003A59AD 2019-04-15 21:10:23 21.2 21 21.5
003A59AD 2019-04-15 20:39:46 21.3 20 21.8
003A59AD 2019-04-15 20:09:08 21.4 20 22
003A59AD 2019-04-15 19:38:30 21.4 20 22.1
003A59AD 2019-04-15 19:07:51 21.4 20 22.7
003A59AD 2019-04-15 18:37:12 21.4 20 23
003A59AD 2019-04-15 18:06:34 21.6 20 23.4
003A59AD 2019-04-15 17:35:55 21.6 19 23.6
003A59AD 2019-04-15 17:05:18 21.6 19 23.8
003A59AD 2019-04-15 16:34:39 21.8 19 24.2
003A59AD 2019-04-15 16:04:02 21.8 19 24.5
003A59AD 2019-04-15 15:33:25 21.9 19 24.7
003A59AD 2019-04-15 15:02:46 22 18 24.8
003A59AD 2019-04-15 14:32:08 22.1 18 25
003A59AD 2019-04-15 14:01:30 22.2 18 25.3
003A59AD 2019-04-15 13:30:51 22.2 18 25.5
003A59AD 2019-04-15 13:00:12 22.5 17 25.9
003A59AD 2019-04-15 12:29:33 22.5 17 26.1
003A59AD 2019-04-15 11:58:55 22.5 15 26.2
003A59AD 2019-04-15 11:28:16 22.5 16 26.2
003A59AD 2019-04-15 10:57:39 22.5 16 26.2
003A59AD 2019-04-15 10:27:01 22.4 17 26.1
003A59AD 2019-04-15 09:56:22 22.3 17 26.1
003A59AD 2019-04-15 09:25:45 22.2 17 26
003A59AD 2019-04-15 08:55:06 22.2 17 25.9
003A59AD 2019-04-15 08:24:27 22.2 17 26
003A59AD 2019-04-15 07:53:47 22 17 26
003A59AD 2019-04-15 07:23:09 22 17 26.1
003A59AD 2019-04-15 06:52:30 22 17 26.1
003A59AD 2019-04-15 06:21:51 22 17 26.1
003A59AD 2019-04-15 05:51:14 22 17 26
003A59AD 2019-04-15 05:20:35 22 17 25.8
003A59AD 2019-04-15 04:49:57 22 17 25.9
003A59AD 2019-04-15 04:19:18 22 17 25.9
003A59AD 2019-04-15 03:48:39 22 17 25.8
003A59AD 2019-04-15 03:18:01 22 18 25.7
003A59AD 2019-04-15 02:47:22 22 18 25.7
003A59AD 2019-04-15 02:16:43 22 18 25.7
003A59AD 2019-04-15 01:46:05 22 18 25.7
003A59AD 2019-04-15 01:15:27 22 18 25.6
003A59AD 2019-04-15 00:44:48 22 18 25.6
003A59AD 2019-04-15 00:14:09 22 18 25.2
003A59AD 2019-04-14 23:43:30 22 18 25.2
003A59AD 2019-04-14 23:12:51 22 18 25.1
003A59AD 2019-04-14 22:42:13 22 18 25.1
003A59AD 2019-04-14 22:11:35 22 18 25
003A59AD 2019-04-14 21:40:57 22.1 18 25.2
003A59AD 2019-04-14 21:10:19 22 18 25.5
003A59AD 2019-04-14 20:39:42 22.1 18 25.9
003A59AD 2019-04-14 20:09:05 22.2 18 25.8
003A59AD 2019-04-14 19:38:29 22.1 18 26.1
003A59AD 2019-04-14 19:07:52 22.1 18 26
003A59AD 2019-04-14 18:37:14 22.1 18 26.1
003A59AD 2019-04-14 18:06:38 22 18 26.1
003A59AD 2019-04-14 17:36:01 22 18 26.1
003A59AD 2019-04-14 17:05:24 22 18 26.1
003A59AD 2019-04-14 16:34:47 22 18 26.3
003A59AD 2019-04-14 16:04:10 22 18 26.3
003A59AD 2019-04-14 15:33:34 22 18 26.3
003A59AD 2019-04-14 15:02:57 22 18 26.4
003A59AD 2019-04-14 14:32:21 22 18 26.5
003A59AD 2019-04-14 14:01:42 22 18 26.3
003A59AD 2019-04-14 13:31:06 22.1 18 26.4
003A59AD 2019-04-14 13:00:29 22 18 26.4
003A59AD 2019-04-14 12:29:51 22.2 18 26.5
003A59AD 2019-04-14 11:59:13 22.1 19 26.7
003A59AD 2019-04-14 11:28:34 22 19 26.9
003A59AD 2019-04-14 10:57:56 22 19 26.8
003A59AD 2019-04-14 10:27:17 22 19 26.8
003A59AD 2019-04-14 09:56:38 22 18 26.8
003A59AD 2019-04-14 09:26:00 22 18 26.9
003A59AD 2019-04-14 08:55:22 22 18 26.9
003A59AD 2019-04-14 08:24:44 22 18 26.7
003A59AD 2019-04-14 07:54:06 22 18 26.7
003A59AD 2019-04-14 07:23:29 22 18 26.8
003A59AD 2019-04-14 06:52:52 22 18 26.5
003A59AD 2019-04-14 06:22:14 22 18 26.5
003A59AD 2019-04-14 05:51:36 22 18 26.5
003A59AD 2019-04-14 05:20:58 22 18 26.5
003A59AD 2019-04-14 04:50:21 22 18 26.5
003A59AD 2019-04-14 04:19:42 22 18 26.5
003A59AD 2019-04-14 03:49:05 22.1 18 26.5
003A59AD 2019-04-14 03:18:27 22.2 18 26.5
003A59AD 2019-04-14 02:47:48 22.1 18 26.5
003A59AD 2019-04-14 02:17:10 22.2 18 26.4
003A59AD 2019-04-14 01:46:34 22.2 18 26.3
003A59AD 2019-04-14 01:15:57 22.2 18 26.5
003A59AD 2019-04-14 00:45:19 22.2 18 26.4
003A59AD 2019-04-14 00:14:41 22.2 18 26.5
003A59AD 2019-04-13 23:44:03 22.2 18 26.5
003A59AD 2019-04-13 23:13:25 22.2 18 26.3
003A59AD 2019-04-13 22:42:46 22.2 18 26.3
003A59AD 2019-04-13 22:12:08 22.2 18 26.3
003A59AD 2019-04-13 21:41:30 22.2 18 26.3
003A59AD 2019-04-13 21:10:52 22.2 18 26.3
003A59AD 2019-04-13 20:40:12 22.2 18 26.3
003A59AD 2019-04-13 20:09:34 22.3 18 26.2
003A59AD 2019-04-13 19:38:55 22.3 18 26.2
003A59AD 2019-04-13 19:08:18 22.4 18 25.9
003A59AD 2019-04-13 18:37:39 22.4 18 25.8
003A59AD 2019-04-13 18:07:01 22.4 18 25.7
003A59AD 2019-04-13 17:36:23 22.5 18 26.1
003A59AD 2019-04-13 17:05:45 22.5 18 26
003A59AD 2019-04-13 16:35:07 22.5 18 26
003A59AD 2019-04-13 16:04:29 22.5 18 26
003A59AD 2019-04-13 15:33:51 22.5 18 26
003A59AD 2019-04-13 15:03:11 22.5 18 25.9
003A59AD 2019-04-13 14:32:31 22.5 18 25.8
003A59AD 2019-04-13 14:01:52 22.5 18 25.8
003A59AD 2019-04-13 13:31:13 22.5 18 26
003A59AD 2019-04-13 13:00:34 22.5 18 26
003A59AD 2019-04-13 12:29:54 22.5 18 26
003A59AD 2019-04-13 11:59:14 22.5 18 26
003A59AD 2019-04-13 11:28:36 22.5 18 25.9
003A59AD 2019-04-13 10:57:56 22.5 18 25.9
003A59AD 2019-04-13 10:27:17 22.5 18 25.9
003A59AD 2019-04-13 09:56:38 22.5 18 25.7
003A59AD 2019-04-13 09:25:59 22.5 18 25.9
003A59AD 2019-04-13 08:55:19 22.5 18 25.9
003A59AD 2019-04-13 08:24:39 22.5 18 25.9
003A59AD 2019-04-13 07:54:00 22.5 18 26
003A59AD 2019-04-13 07:23:21 22.5 18 26.2
003A59AD 2019-04-13 06:52:43 22.5 18 26.2
003A59AD 2019-04-13 06:22:04 22.5 18 26.3
003A59AD 2019-04-13 05:51:26 22.5 18 26.3
003A59AD 2019-04-13 05:20:47 22.5 18 26.3
003A59AD 2019-04-13 04:50:09 22.5 18 25.9
003A59AD 2019-04-13 04:19:30 22.5 18 26.2
003A59AD 2019-04-13 03:48:52 22.7 18 26.5
003A59AD 2019-04-13 03:18:14 22.7 18 26.8
003A59AD 2019-04-13 02:47:35 22.7 18 27
003A59AD 2019-04-13 02:16:58 22.7 18 27
003A59AD 2019-04-13 01:46:20 22.7 18 26.9
003A59AD 2019-04-13 01:15:41 22.7 19 27
003A59AD 2019-04-13 00:45:03 22.7 19 27
003A59AD 2019-04-13 00:14:24 22.7 19 27
003A59AD 2019-04-12 23:43:45 22.9 19 27
003A59AD 2019-04-12 23:13:07 22.9 19 27.1
003A59AD 2019-04-12 22:42:28 22.9 19 27.2
003A59AD 2019-04-12 22:11:49 22.9 19 27.2
003A59AD 2019-04-12 21:41:10 22.9 19 27.2
003A59AD 2019-04-12 21:10:31 23 19 27.4
003A59AD 2019-04-12 20:39:53 23.1 19 27.3
003A59AD 2019-04-12 20:09:14 23 19 27.4
003A59AD 2019-04-12 19:38:36 23 19 27.5
003A59AD 2019-04-12 19:07:57 23.1 18 27.4
003A59AD 2019-04-12 18:37:20 23.1 18 27.2
003A59AD 2019-04-12 18:06:41 23.3 18 27.5
003A59AD 2019-04-12 17:36:05 23.3 18 27.4
003A59AD 2019-04-12 17:05:27 23.1 18 27.8
003A59AD 2019-04-12 16:34:51 23.1 18 28.2
003A59AD 2019-04-12 16:04:14 23.1 18 28.7
003A59AD 2019-04-12 15:33:37 22.9 19 28.4
003A59AD 2019-04-12 15:03:00 22.7 19 27.9
003A59AD 2019-04-12 14:32:22 22.5 20 26.9
003A59AD 2019-04-12 14:01:45 22.2 20 23.8
003A59AD 2019-04-12 13:31:09 21.7 21 22.2
003A59AD 2019-04-12 13:00:32 20.9 26 0